FENGYUN 1C DEB, 31175

Orbit data source: Space-Track

FENGYUN 1C DEB, 31175 is space debris in SSO originally from a launch on Mon, 10 May 1999 UTC launched from the Taiyaun Space Center, China (TSC). Fengyun 1C debris stems from the Chinese weather satellite Fengyun-1C, which was intentionally destroyed by a Chinese anti-satellite missile in 2007. This event dramatically increased the amount of space debris, with thousands of trackable fragments posing hazards to satellites and human spaceflight. The Fengyun 1C debris cloud has become a focal point in discussions about space sustainability and the need for international regulations to prevent the creation of new debris.

Loading next visibility...
Identifier
31175, 1999-025BJD
Orbit
SSO
Country
Flag of CNCN / PRC
Related business
Manufacturer
Unknown
Mission
Spacecraft
Bus & Motor
Unknown
Mass
Unknown
Launch date (UTC)
1999-05-10 (26 years ago)
Launch vehicle
Unknown
Launch site
Taiyaun Space Center, China (TSC)
Object type
Payload
Rocket body
Debris
Shape & HBR
Unknown shape, 0.1 m
Radar Cross Section
Small (<0.1 m²)

Expand to show TLE details & history
Last TLE update: 16 hours ago

TLE from 16 hours ago
0 FENGYUN 1C DEB
1 31175U 99025BJD 25310.26357754  .00036924  00000-0  77469-2 0  9991
2 31175  98.3984 310.0328 0075910 280.4963  78.7689 14.57703048651074
Epoch: 2025-11-06T06:19Z
TLE epoch observation values (Epoch: 2025-11-06T06:19:33.099Z)
Latitude
Longitude
169.42049°
Altitude
693.502 km
Speed
7.515 km/s
True Right ascension
20h 40m 07s
True Declination
0° 00' 00"
Sunlit
Object was in daylight at epoch
Visualization orbit readout
Latitude
Unknown
Longitude
Unknown
Altitude
Unknown
Speed
Unknown
Apparent Right ascension
Unknown
Apparent Declination
Unknown
Sunlit
N/A
Visualization observer readout
Local Sidereal Time
18:52:41
Azimuth
Unknown
Elevation
Unknown
Doppler factor
Unknown
Orbital elements
Apogee altitude
751.406 km
Perigee altitude
643.981 km
Semi-major axis
7,075.831 km
Eccentricity
0.00759
Inclination
98.3984°
RAAN
310.0328°
Arg. of periapsis
280.4963°
True anomaly
79.62365°
Mean anomaly
78.7689°
Eccentric anomaly
79.19612°
Mean motion
3.64651 °/min
Orbital period
98.72 mins
BSTAR
0.0077469
Loading maneuver chart data...
Computing Atmospheric mass density...

Documentation

Showing up to 5 results
|